Weather History for Cape Cod CGAS, MA

Change the Weather History Date:

Wednesday, October 10, 2012

  Actual Average Record
Temperature  
Mean Temperature 58 °F -  
Max Temperature 64 °F 60 °F 80 °F (2011)
Min Temperature 53 °F 43 °F 35 °F (2000)
Degree Days  
Heating Degree Days 6    
Growing Degree Days 8 (Base 50)    
Moisture  
Dew Point 57 °F    
Average Humidity 92    
Maximum Humidity 100    
Minimum Humidity 77    
Precipitation  
Precipitation 0.00 in - - ()
Sea Level Pressure  
Sea Level Pressure 29.91 in    
Wind  
Wind Speed 11 mph (ESE)    
Max Wind Speed 20 mph    
Max Gust Speed 24 mph    
Visibility 9 miles    
Events Rain    
Averages and records for this station are not official NWS values.
T = Trace of Precipitation, MM = Missing Value Source: NWS Daily Summary

Daily Weather History Graph

Daily Weather History Graph

Search for Another Location

Airport:

Trip Planner

Search our weather history database for the weather conditions in past years. The results will help you decide how hot, cold, wet, or windy it might be!

Date:

Astronomy

Oct. 10, 2012 Rise Set
Actual Time 6:49 AM EDT 6:08 PM EDT
Civil Twilight 6:21 AM EDT 6:35 PM EDT
Nautical Twilight 5:49 AM EDT 7:07 PM EDT
Astronomical Twilight 5:16 AM EDT 7:40 PM EDT
Moon 1:18 AM EDT (10/10) 3:12 PM EDT (10/10)
Length of Visible Light 12h 14m
Length of Day
11h 18m
Waning Crescent, 27% of the Moon is Illuminated
Oct 10
Waning Crescent
Oct 15
New
Oct 21
First Quarter
Oct 29
Full
Nov 6
Last Quarter

Hourly Weather History & Observations

Time (EDT) Temp. Dew Point Humidity Pressure Visibility Wind Dir Wind Speed Gust Speed Precip Events Conditions
12:35 AM 53.6 °F 53.6 °F 100% 30.11 in 7.0 mi NE 9.2 mph - N/A   Overcast
12:55 AM 55.4 °F 53.6 °F 94% 30.10 in 7.0 mi NE 8.1 mph - N/A   Overcast
1:15 AM 55.4 °F 53.6 °F 94% 30.09 in 7.0 mi ENE 12.7 mph - N/A   Overcast
1:35 AM 55.4 °F 53.6 °F 94% 30.08 in 8.0 mi ENE 10.4 mph - N/A   Overcast
1:55 AM 55.4 °F 53.6 °F 94% 30.08 in 7.0 mi ENE 10.4 mph 18.4 mph N/A   Overcast
2:15 AM 55.4 °F 53.6 °F 94% 30.08 in 10.0 mi ENE 8.1 mph - N/A   Overcast
2:35 AM 55.4 °F 53.6 °F 94% 30.08 in 10.0 mi East 6.9 mph - N/A   Overcast
2:55 AM 55.4 °F 53.6 °F 94% 30.07 in 10.0 mi ENE 10.4 mph - N/A   Overcast
3:15 AM 55.4 °F 55.4 °F 100% 30.07 in 8.0 mi ENE 6.9 mph - N/A   Overcast
3:35 AM 55.4 °F 55.4 °F 100% 30.06 in 10.0 mi East 6.9 mph - N/A   Overcast
3:55 AM 55.4 °F 55.4 °F 100% 30.06 in 10.0 mi ENE 8.1 mph - N/A   Overcast
4:15 AM 55.4 °F 55.4 °F 100% 30.06 in 10.0 mi ENE 8.1 mph - N/A   Overcast
4:35 AM 55.4 °F 55.4 °F 100% 30.06 in 10.0 mi ENE 8.1 mph - N/A   Overcast
4:55 AM 55.4 °F 55.4 °F 100% 30.06 in 4.0 mi ENE 6.9 mph - N/A   Overcast
5:15 AM 55.4 °F 55.4 °F 100% 30.06 in 5.0 mi NE 6.9 mph - N/A   Overcast
5:35 AM 55.4 °F 55.4 °F 100% 30.06 in 10.0 mi NE 5.8 mph - N/A   Overcast
5:55 AM 55.4 °F 55.4 °F 100% 30.05 in 10.0 mi NE 6.9 mph - N/A   Overcast
6:15 AM 55.4 °F 55.4 °F 100% 30.04 in 10.0 mi ENE 10.4 mph - N/A   Overcast
6:35 AM 55.4 °F 55.4 °F 100% 30.03 in 10.0 mi ENE 9.2 mph - N/A   Overcast
6:55 AM 55.4 °F 55.4 °F 100% 30.03 in 10.0 mi ENE 6.9 mph - N/A   Overcast
7:15 AM 55.4 °F 55.4 °F 100% 30.03 in 10.0 mi NE 6.9 mph - N/A   Overcast
7:35 AM 57.2 °F 55.4 °F 94% 30.02 in 5.0 mi ENE 9.2 mph - N/A   Overcast
7:55 AM 57.2 °F 55.4 °F 94% 30.01 in 5.0 mi ENE 8.1 mph - N/A   Overcast
8:15 AM 57.2 °F 55.4 °F 94% 30.01 in 3.0 mi ENE 9.2 mph - N/A   Overcast
8:35 AM 57.2 °F 57.2 °F 100% 30.02 in 4.0 mi East 6.9 mph - N/A   Overcast
8:55 AM 57.2 °F 57.2 °F 100% 30.01 in 5.0 mi ENE 6.9 mph - N/A   Overcast
9:15 AM 57.2 °F 57.2 °F 100% 30.00 in 10.0 mi ENE 5.8 mph - N/A   Overcast
9:35 AM 59.0 °F 57.2 °F 94% 30.00 in 5.0 mi East 6.9 mph - N/A   Overcast
9:55 AM 59.0 °F 57.2 °F 94% 29.99 in 10.0 mi East 5.8 mph - N/A   Overcast
10:15 AM 59.0 °F 59.0 °F 100% 29.98 in 10.0 mi East 5.8 mph - N/A   Overcast
10:35 AM 60.8 °F 57.2 °F 88% 29.98 in 10.0 mi ESE 12.7 mph 17.3 mph N/A   Overcast
10:55 AM 60.8 °F 57.2 °F 88% 29.97 in 10.0 mi ESE 9.2 mph 17.3 mph N/A   Overcast
11:15 AM 60.8 °F 57.2 °F 88% 29.96 in 10.0 mi SE 15.0 mph 20.7 mph N/A   Overcast
11:35 AM 62.6 °F 59.0 °F 88% 29.95 in 10.0 mi ESE 13.8 mph - N/A   Overcast
11:55 AM 64.4 °F 59.0 °F 83% 29.94 in 10.0 mi ESE 13.8 mph 21.9 mph N/A   Overcast
12:15 PM 62.6 °F 59.0 °F 88% 29.93 in 10.0 mi SE 18.4 mph 24.2 mph N/A   Overcast
12:35 PM 64.4 °F 59.0 °F 83% 29.91 in 10.0 mi SE 18.4 mph 21.9 mph N/A   Overcast
12:55 PM 62.6 °F 59.0 °F 88% 29.90 in 10.0 mi SE 17.3 mph 23.0 mph N/A   Overcast
1:15 PM 62.6 °F 59.0 °F 88% 29.89 in 1.5 mi SE 16.1 mph 20.7 mph N/A   Mist
1:35 PM 62.6 °F 59.0 °F 88% 29.87 in 8.0 mi SE 15.0 mph 21.9 mph N/A   Mostly Cloudy
1:55 PM 62.6 °F 59.0 °F 88% 29.86 in 10.0 mi SE 16.1 mph 21.9 mph N/A   Overcast
2:15 PM 62.6 °F 59.0 °F 88% 29.85 in 10.0 mi SE 13.8 mph 19.6 mph N/A   Overcast
2:35 PM 62.6 °F 59.0 °F 88% 29.83 in 10.0 mi SE 13.8 mph 21.9 mph N/A   Overcast
2:55 PM 60.8 °F 59.0 °F 94% 29.82 in 3.0 mi SE 15.0 mph - N/A Rain Light Rain
3:15 PM 60.8 °F 59.0 °F 94% 29.81 in 10.0 mi SE 18.4 mph 23.0 mph N/A   Overcast
3:35 PM 60.8 °F 59.0 °F 94% 29.80 in 10.0 mi SE 19.6 mph - N/A   Overcast
3:55 PM 60.8 °F 59.0 °F 94% 29.79 in 10.0 mi SE 16.1 mph 23.0 mph N/A   Overcast
4:15 PM 60.8 °F 59.0 °F 94% 29.78 in 10.0 mi SE 16.1 mph 21.9 mph N/A   Overcast
4:35 PM 60.8 °F 59.0 °F 94% 29.78 in 10.0 mi SE 13.8 mph 21.9 mph N/A   Overcast
4:55 PM 60.8 °F 59.0 °F 94% 29.77 in 10.0 mi SSE 17.3 mph - N/A   Overcast
5:15 PM 62.6 °F 59.0 °F 88% 29.76 in 9.0 mi SSE 13.8 mph - N/A   Overcast
5:35 PM 62.6 °F 60.8 °F 94% 29.75 in 1.0 mi SSE 16.1 mph 20.7 mph N/A Rain Light Rain
5:55 PM 62.6 °F 60.8 °F 94% 29.75 in 2.0 mi SSW 10.4 mph 21.9 mph N/A   Overcast
6:15 PM 62.6 °F 60.8 °F 94% 29.74 in 10.0 mi South 8.1 mph - N/A   Overcast
6:35 PM 60.8 °F 59.0 °F 94% 29.75 in 10.0 mi SSW 10.4 mph - N/A   Mostly Cloudy
6:55 PM 60.8 °F 59.0 °F 94% 29.76 in 10.0 mi SW 11.5 mph - N/A   Scattered Clouds
7:15 PM 62.6 °F 59.0 °F 88% 29.76 in 10.0 mi SW 12.7 mph 17.3 mph N/A   Overcast
7:35 PM 60.8 °F 59.0 °F 94% 29.75 in 10.0 mi SW 11.5 mph - N/A   Mostly Cloudy
7:55 PM 60.8 °F 59.0 °F 94% 29.75 in 10.0 mi SW 11.5 mph - N/A   Partly Cloudy
8:15 PM 59.0 °F 57.2 °F 94% 29.76 in 10.0 mi WSW 12.7 mph - N/A   Scattered Clouds
8:35 PM 60.8 °F 55.4 °F 82% 29.76 in 10.0 mi WSW 13.8 mph - N/A   Mostly Cloudy
8:55 PM 59.0 °F 55.4 °F 88% 29.77 in 10.0 mi West 16.1 mph - N/A   Scattered Clouds
9:15 PM 59.0 °F 53.6 °F 82% 29.78 in 10.0 mi West 10.4 mph - N/A   Clear
9:35 PM 59.0 °F 53.6 °F 82% 29.78 in 10.0 mi West 11.5 mph - N/A   Clear
9:55 PM 57.2 °F 53.6 °F 88% 29.79 in 10.0 mi West 12.7 mph - N/A   Scattered Clouds
10:15 PM 59.0 °F 53.6 °F 82% 29.80 in 10.0 mi West 13.8 mph 19.6 mph N/A   Scattered Clouds
10:35 PM 59.0 °F 53.6 °F 82% 29.80 in 10.0 mi West 15.0 mph 21.9 mph N/A   Partly Cloudy
10:55 PM 57.2 °F 51.8 °F 82% 29.80 in 10.0 mi West 13.8 mph - N/A   Clear
11:15 PM 57.2 °F 51.8 °F 82% 29.80 in 10.0 mi West 15.0 mph 21.9 mph N/A   Clear
11:35 PM 57.2 °F 51.8 °F 82% 29.80 in 10.0 mi West 13.8 mph 23.0 mph N/A   Clear
11:55 PM 57.2 °F 50.0 °F 77% 29.80 in 10.0 mi West 13.8 mph 18.4 mph N/A   Clear